Simultaneous Nadir Overpasses (SNOs) Predictions

Prediction of SNOs between METOP-A and NOAA-19 Satellite Orbit:

Table of predicted SNOs for the next 14.0 days since TLE Epoch: 8/1/2012
<
Index Date (METOP-A) Time (METOP-A) METOP-A Lat,Lon Date (NOAA-19) Time (NOAA-19) NOAA-19 Lat,Lon Distance(km) Time Diff (sec)
1 08/03/2012 18:21:30 -73.82, 78.85 08/03/2012 18:20:23 -73.80, 75.87 92.49 67
2 08/03/2012 19:12:23 73.16,-115.32 08/03/2012 19:11:14 73.14,-115.36 2.84 69
3 08/03/2012 20:03:06 -73.10, 51.88 08/03/2012 20:02:14 -73.10, 51.97 2.91 52
4 08/03/2012 20:53:46 73.09,-140.81 08/03/2012 20:53:18 73.08,-140.76 2.00 28
5 08/03/2012 21:44:28 -73.08, 26.50 08/03/2012 21:44:19 -73.09, 26.47 1.63 9
6 08/03/2012 22:35:08 73.07,-166.19 08/03/2012 22:35:23 73.07,-166.26 2.29 15
7 08/03/2012 23:25:51 -73.01, 1.01 08/03/2012 23:26:23 -73.04, 1.07 3.21 32
8 08/04/2012 00:16:31 73.00, 168.32 08/04/2012 00:17:27 73.02, 168.35 1.58 56
9 08/04/2012 01:07:13 -73.00, -24.37 08/04/2012 01:08:27 -72.98, -24.33 2.24 74
10 08/13/2012 16:33:22 -73.43, 105.00 08/13/2012 16:32:10 -73.44, 103.76 39.27 72
11 08/13/2012 17:24:08 73.12, -88.35 08/13/2012 17:23:10 73.11, -88.27 2.95 58
12 08/13/2012 18:14:50 -73.11, 78.96 08/13/2012 18:14:09 -73.14, 78.93 2.88 41
13 08/13/2012 19:05:30 73.10,-113.73 08/13/2012 19:05:15 73.10,-113.77 1.31 15
14 08/13/2012 19:56:12 -73.09, 53.58 08/13/2012 19:56:13 -73.08, 53.54 1.84 1
15 08/13/2012 20:46:53 73.03,-139.22 08/13/2012 20:47:19 73.05,-139.17 2.39
